Аламнер

Россия / Республика Марий Эл     56°13′42″N   46°41′33″E
темп.,
°C
ветер,
м/с
пор.,
м/с
влажн.,
%
обл.,
%
осадки,
мм/ч
давл.,
гПа
погр.,
м
11 мая, вт
вт1100:00+9ссв4895100 0.0 1025299
03:00+8ссв499698 0.0 1025283
06:00+10св579194 0.0 1026316
09:00+15св4674100 0.0 1026553
12:00+21св4458100 0.0 1026925
15:00+22св4554100 0.0 10261252
18:00+20св4771100 0.0 1026270
21:00+15св399277 0.6 1027172
12 мая, ср
ср1200:00+13всв2695100 0.9 1028137
03:00+13всв369524 0.9 1028103
06:00+15всв37906 0.0 1028184
09:00+21в47575 0.0 1027664
12:00+24юв57455 0.0 10271748
15:00+24ююв574790 0.0 10262301
18:00+19ююз366681 0.0 1026217
21:00+16юв2267100 0.0 102711
13 мая, чт
чт1300:00+15юв226789 0.0 102713
03:00+14юв226390 0.0 102622
06:00+16вюв266794 0.0 1026175
09:00+20юв485590 0.0 1026565
12:00+23юв694647 0.0 10241347
15:00+21ююв51055100 0.0 10241163
18:00+19юв41065100 0.0 1023353
21:00+16вюв4136733 0.0 1022299
14 мая, пт
пт1400:00+16ююв41177100 0.2 1021249
03:00+13ююв368394 0.3 1021109
06:00+16юв387526 0.0 1021268
09:00+21ю345548 0.0 1021619
12:00+24ююз4551100 0.0 10211034
15:00+24ююз3550100 0.0 10211246
18:00+23зюз1167100 0.0 101913
21:00+18вюв228032 0.6 101911
15 мая, сб
сб1500:00+16ю358074 0.0 101982
03:00+15ю310835 0.0 1019168
06:00+17ююв4107435 0.0 1018224
09:00+23ю59525 0.0 1017468
12:00+27ю6113910 0.0 10171161
15:00+27ююз510405 0.0 10161514
18:00+23ю512535 0.0 1015475
21:00+19ю5146144 0.0 1015294